Location: Marcé
(47.5801°N, 0.3280°W)
Time: 21:48:55
(UTC+01:00)

Tiangong - Pass Details

Date: 27 October 2021
Orbit: 379 x 384 km, 41.5° (Epoch: 06 December)

Event Time Altitude Azimuth Distance (km) Brightness Sun altitude
Rises 20:37:39 0° 262° (W) 2,273 6.6 -18.4°
Reaches altitude 10° 20:40:25 10° 236° (SW) 1,414 4.7 -18.9°
Maximum altitude 20:42:11 14° 202° (SSW) 1,195 3.8 -19.2°
Enters shadow 20:43:16 12° 180° (S) 1,277 3.7 -19.4°
